COSMOS 2491 DEB, 57560

Orbit data source: Space-Track

COSMOS 2491 DEB, 57560 is space debris in LEO originally from a launch on Wed, 25 Dec 2013 UTC launched from the Plesetsk Missile And Space Complex (PKMTR). Debris objects in space refer to the collection of defunct objects orbiting the Earth. Examples of debris include non-operational satellites, rocket bodies, and fragments generated from explosions, collisions, or faulty payload assembly.

Loading next visibility...
Identifier
57560, 2013-076AX
Orbit
LEO
Country
Flag of CISCIS
Related business
Manufacturer
TsNIIKhM
Mission
Spacecraft
Bus & Motor
Unknown
Mass
Unknown
Launch date (UTC)
2013-12-25 (13 years ago)
Launch vehicle
Unknown
Launch site
Plesetsk Missile And Space Complex (PKMTR)
Object type
Payload
Rocket body
Debris
Shape & HBR
Unknown shape, 0.1 m
Radar Cross Section
Small (<0.1 m²)

Expand to show TLE details & history
Last TLE update: 2 weeks ago

TLE from 2 weeks ago
0 COSMOS 2491 DEB
1 57560U 13076AX  26241.34019890  .00001646  00000-0  99425-2 0  9997
2 57560  82.4838 107.4382 0037273 348.0111  12.0085 12.55858679151372
Epoch: 2026-08-29T08:09Z
TLE epoch observation values (Epoch: 2026-08-29T08:09:53.184Z)
Latitude
-0.00006°
Longitude
7.41505°
Altitude
1,414.3 km
Speed
7.166 km/s
True Right ascension
07h 09m 45s
True Declination
0° 00' 00"
Sunlit
Object was in daylight at epoch
Visualization orbit readout
Latitude
Unknown
Longitude
Unknown
Altitude
Unknown
Speed
Unknown
Apparent Right ascension
Unknown
Apparent Declination
Unknown
Sunlit
N/A
Visualization observer readout
Local Sidereal Time
00:07:06
Azimuth
Unknown
Elevation
Unknown
Doppler factor
Unknown
Orbital elements
Apogee altitude
1,466.549 km
Perigee altitude
1,408.287 km
Semi-major axis
7,815.555 km
Eccentricity
0.00373
Inclination
82.4838°
RAAN
107.4382°
Arg. of periapsis
348.0111°
True anomaly
12.09777°
Mean anomaly
12.0085°
Eccentric anomaly
12.05309°
Mean motion
3.14126 °/min
Orbital period
114.6 mins
BSTAR
0.0099425
Loading maneuver chart data...
Computing Atmospheric mass density...
Loading historical data...
Loading historical data...
Loading historical data...
Loading historical data...
Loading historical data...
Loading historical data...
Loading historical data...

Documentation

Showing up to 5 results
|